Orbital Elements at Epoch 2459000.5 (2020-May-31.0) TDB
Reference: JPL 13 (heliocentric ecliptic J2000)
Element | Value | Uncertainty (1-sigma) | Units |
e | .189966490228513 | 4.1925e-08 | |
a | 3.10566255219483 | 2.9738e-08 | au |
q | 2.515690737320252 | 1.3754e-07 | au |
i | 19.1175216625894 | 6.3846e-06 | deg |
node | 139.6720682170206 | 1.3303e-05 | deg |
peri | 287.4177935820522 | 2.4104e-05 | deg |
M | 258.5537068402849 | 2.0991e-05 | deg |
tp | 2459563.830812878921 (2021-Dec-15.33081288) | 0.00012084 | TDB |
period | 1999.078392318667 5.47 | 2.8713e-05 7.861e-08 | d yr |
n | .1800829829301729 | 2.5866e-09 | deg/d |
Q | 3.695634367069407 | 3.5388e-08 | au |
|
| | Orbit Determination Parameters
Additional Information
|